Regional Weather Roundup
Issued by NWS Upton, NY

Current Version | Previous Version | Graphics & Text | Print | Product List | Glossary Off
Versions: 1 2 3 4 5 6 7 8 9 10 11 12 13 14 15 16 17 18 19 20 21 22 23 24 25 26 27 28 29 30 31 32 33 34 35 36 37 38 39 40 41 42 43 44 45 46 47 48 49 50
000 ASUS41 KOKX 210308 RWROKX REGIONAL WEATHER ROUNDUP NATIONAL WEATHER SERVICE NEW YORK NY 1100 PM EDT WED SEP 20 2017 NOTE: "FAIR" INDICATES FEW OR NO CLOUDS BELOW 12,000 FEET WITH NO SIGNIFICANT WEATHER AND/OR OBSTRUCTIONS TO VISIBILITY. NYZ071-072-176-178-NJZ106-104-210400- NEW YORK CITY METRO AREA CITY SKY/WX TMP DP RH WIND PRES REMARKS Central Park MOCLDY 75 63 66 VRB6 29.96R Bronx Bot Gard N/A 73 63 68 W5 29.94R LaGuardia APRT CLOUDY 76 65 68 N9 29.92R Kennedy INTL MOCLDY 75 64 68 N9 29.93R Breezy Point N/A 75 N/A N/A N8 N/A Newark/Liberty CLOUDY 76 63 64 NW10 29.94R Teterboro CLOUDY 74 63 68 N5 29.93R $$ NYZ177-179-078>081-210400- LONG ISLAND NEW YORK CITY SKY/WX TMP DP RH WIND PRES REMARKS Jones Beach N/A 73 N/A N/A N15 N/A Matinecock PT N/A 73 N/A N/A N16 N/A Farmingdale CLOUDY 74 63 68 N8 29.90S MacArthur/ISP CLOUDY 73 65 75 N8 29.88S Shirley CLOUDY 74 66 76 N16G22 29.88S Mt Sinai Harb N/A N/A N/A N/A N9 N/A Westhampton CLOUDY 72 64 76 N10 29.88S East Hampton CLOUDY 71 65 83 N13G20 29.85F Montauk N/A 71 67 87 N12G18 29.85S $$ NYZ052-065-067-210400- HUDSON VALLEY CITY SKY/WX TMP DP RH WIND PRES REMARKS White Plains CLOUDY 70 63 78 NW7 29.94R Larchmont Harb N/A 73 N/A N/A NW7 N/A Croton On Huds N/A 72 N/A N/A NW1 N/A Newburgh MOCLDY 72 64 78 NE12 29.98R Montgomery CLOUDY 70 64 81 N7 29.97R Poughkeepsie CLOUDY 70 63 78 N3 29.95R Albany CLOUDY 68 63 84 NW5 30.00R $$ NJZ001-105-106-008-010-013-015-019>022-104-210400- NEW JERSEY CITY SKY/WX TMP DP RH WIND PRES REMARKS Newark/Liberty CLOUDY 76 63 64 NW10 29.94R Teterboro CLOUDY 74 63 68 N5 29.93R Caldwell MOCLDY 71 65 81 CALM 29.96R Somerville NOT AVBL Linden FAIR 74 62 66 CALM 29.95R Perth Amboy N/A 73 N/A N/A N8 N/A Sussex MOCLDY 66 66 100 CALM 29.99R Andover N/A 65 64 97 CALM 29.99R Trenton CLEAR 72 66 81 N5 29.95R Millville CLEAR 68 67 96 CALM 29.95R Atlantic City PTCLDY 71 65 81 N6 29.94R Wrightstown CLEAR 70 64 81 NW6 29.92S Toms River CLEAR 69 64 84 NW5 29.95R Belmar CLEAR 69 64 84 NW8 29.94S $$ PAZ047>061-062-071-210400- EASTERN PENNSYLVANIA CITY SKY/WX TMP DP RH WIND PRES REMARKS Philadelphia PTCLDY 75 64 68 N5 29.95R Allentown CLEAR 70 61 73 CALM 29.98R Scranton CLEAR 66 61 84 E3 30.02R $$ CTZ002-004>006-009-010-012-RIZ004-006-007-MAZ004-011-015-210400- SOUTHERN NEW ENGLAND IN CT CITY SKY/WX TMP DP RH WIND PRES REMARKS Bradley INTL CLOUDY 72 64 76 N10 29.91F Hartford MOCLDY 72 65 78 N5 29.90S Danbury CLOUDY 73 64 73 N7 29.95R Wtrbury/Oxford CLOUDY 70 63 78 N10 29.94S Norwalk Harbor N/A 73 N/A N/A NW8 N/A Bridgeport CLOUDY 74 63 68 N7G18 29.89F Meriden CLOUDY 72 63 73 N8 29.90S New Haven MOCLDY 73 63 70 N12G20 29.89S Chester MOCLDY 72 66 83 N8G17 29.89S Groton CLOUDY 73 65 75 N13G25 29.84S Wilimantic CLOUDY 74 65 73 N15G29 29.89S IN RI CITY SKY/WX TMP DP RH WIND PRES REMARKS Providence CLOUDY 71 68 90 N17G26 29.86S Block Island CLOUDY 70 66 87 N20G32 29.82S Westerly CLOUDY 73 66 78 N17G25 29.85S IN MA CITY SKY/WX TMP DP RH WIND PRES REMARKS Boston CLOUDY 72 66 81 N20 29.88S Worcester CLOUDY 68 62 81 NE12G24 29.94R Westfield CLOUDY 71 64 78 N8 29.93S Provincetown PTCLDY 64 62 93 N18G28 29.81S Nantucket RAIN 67 67 100 N32G47 29.67R FOG $$ ANZ330-335-338-340-345-350-353-355-210400- COASTAL MARINE OBSERVATIONS STATION/POSITION TIME SKY/WX TEMP WIND PRES VSBY WAVE AIR SEA DIR/SP/G HT/PER (UTC) (F) (DEG/KT/KT) (MB) (MI) (FT/S) NY HARB ENTRANCE 0150 74 70 340/ 12/ 16 1011.7 6/10 20 S FIRE ISLAND 0150 71 68 350/ 12/ 14 1011.8 6/10 GREAT SOUTH BAY 0215 74 71 10/ 16/ 21 N/A 23 SSW MONTAUK P 0150 69 66 1009.8 7/ 9 15 E BARNEGAT LI 0200 69 N/A 7/11 HUDSON CANYON 0150 71 69 340/ 19/ 21 1009.6 10/ 9 KINGS POINT 0230 73 71 10/ 8/ 9 1013.8 EXECUTION ROCKS 0245 74 350/ 8/ 12 N/A WESTERN LI SOUND NOT AVBL CENTRAL LI SOUND 0245 72 10/ 14/ 17 N/A 2 EASTERN LI SOUND NOT AVBL ROBBINS REEF 0230 76 320/ 9/ 10 1014.0 $$ >>>>>>>>>>>>>>>>>>>>>>>>>>>> KEY <<<<<<<<<<<<<<<<<<<<<<<<<<< > < > SKY/WX - Sky Condition/Present Weather < > TMP - Temperature in Fahrenheit < > DP - Dew Point in Fahrenheit < > RH - Relative Humidity in Percent < > WIND - Direction (from) and Speed in MPH < > PRES - Mean Sea Level Pressure (inches of Hg) < > WCI - Wind Chill Index < > VSB - VISIBILITY IN MILES < > HX - HEAT INDEX < > TC - TEMPERATURE IN CELSIUS < > VRB - VARIABLE WIND DIRECTION < > < >>>>>>>>>>>>>>>>>>>>>>>>>>>> KEY <<<<<<<<<<<<<<<<<<<<<<<<<<<

USA.gov is the U.S. government's official web portal to all federal, state and local government web resources and services.